Content
SEND FEEDBACK

Daily
Averages
Monthly
Summary
Switzerland

BERN, SWITZERLAND


Home > Europe > Switzerland
Elevation: 1673 feet     Latitude: 46 55N     Longitude: 007 30E

WEATHER
 
SELECT A DAY
Number of Records: 179,448;   Date Range: 7/1/96 - 7/26/14
 
SHARE

PRINT THIS DATA

[ ← Previous Day ]
WEATHER ALMANAC - OCTOBER 8, 2013
[ Next Day → ]
[ °C ]   °F
We're sorry. There is no daily almanac available for Bern, Switzerland on October 8, 2013.
WEATHER BY HOUR - OCTOBER 8, 2013
[ °C ]   °F
Local TimeTemperatureDewpointHumidityBarometerVisibilityWind DirectionWind SpeedGust SpeedPrecipitationEventsConditions
12:50 AM55.4 °F51.8 °F88 %30.21 in4.3 miWNW (290°)5.8 mphOvercast
1:20 AM55.4 °F51.8 °F88 %30.21 in4.3 miWNW (290°)4.6 mphOvercast
1:50 AM53.6 °F53.6 °F100 %30.21 in3.7 miWNW (300°)3.5 mphOvercast
2:20 AM53.6 °F53.6 °F100 %30.21 in3.7 miVariable3.5 mphOvercast
2:50 AM53.6 °F51.8 °F94 %30.21 in3.7 miNW (320°)2.3 mphOvercast
3:20 AM53.6 °F53.6 °F100 %30.21 in3.7 miNNW (330°)2.3 mphOvercast
3:50 AM53.6 °F53.6 °F100 %30.21 in3.7 miNW (310°)2.3 mphOvercast
4:20 AM53.6 °F51.8 °F94 %30.21 in4.3 miNW (310°)3.5 mphOvercast
4:50 AM53.6 °F51.8 °F94 %30.21 in3.7 miVariable3.5 mphOvercast
5:20 AM53.6 °F51.8 °F94 %30.21 in3.7 miNW (310°)3.5 mphMostly Cloudy
5:50 AM53.6 °F51.8 °F94 %30.21 in5.6 miNW (310°)3.5 mphMostly Cloudy
6:20 AM53.6 °F51.8 °F94 %30.21 in5.6 miNW (320°)2.3 mphMostly Cloudy
6:50 AM53.6 °F51.8 °F94 %30.21 in5.6 miCalmMostly Cloudy
7:20 AM53.6 °F51.8 °F94 %30.21 in3.7 miVariable2.3 mphMostly Cloudy
7:50 AM53.6 °F51.8 °F94 %30.21 in3.1 miVariable2.3 mphMostly Cloudy
8:20 AM53.6 °F51.8 °F94 %30.21 in3.1 miVariable2.3 mphMostly Cloudy
8:50 AM53.6 °F51.8 °F94 %30.21 in3.1 miNW (320°)3.5 mphOvercast
9:20 AM53.6 °F53.6 °F100 %30.21 in3.1 miWNW (300°)2.3 mphOvercast
9:50 AM55.4 °F51.8 °F88 %30.24 in3.1 miCalmOvercast
10:20 AM55.4 °F51.8 °F88 %30.24 in3.1 miWest (280°)3.5 mphOvercast
10:50 AM57.2 °F53.6 °F88 %30.24 in3.1 miWNW (290°)4.6 mphOvercast
11:20 AM57.2 °F53.6 °F88 %30.24 in3.1 miWNW (290°)3.5 mphOvercast
11:50 AM57.2 °F53.6 °F88 %30.21 in3.1 miWest (270°)4.6 mphMostly Cloudy
12:20 PM59.0 °F53.6 °F82 %30.21 in3.7 miWest (270°)4.6 mphMostly Cloudy
12:50 PM59.0 °F53.6 °F82 %30.21 in3.7 miWest (280°)4.6 mphMostly Cloudy
1:20 PM59.0 °F53.6 °F82 %30.21 in4.3 miWNW (300°)4.6 mphMostly Cloudy
1:50 PM59.0 °F53.6 °F82 %30.21 in4.3 miNW (310°)6.9 mphMostly Cloudy
2:20 PM59.0 °F53.6 °F82 %30.21 in4.3 miNW (310°)6.9 mphMostly Cloudy
2:50 PM59.0 °F53.6 °F82 %30.21 in4.3 miNW (310°)8.1 mphMostly Cloudy
3:20 PM59.0 °F53.6 °F82 %30.21 in4.3 miNW (320°)6.9 mphMostly Cloudy
3:50 PM59.0 °F53.6 °F82 %30.21 in3.7 miWNW (300°)5.8 mphMostly Cloudy
4:20 PM59.0 °F53.6 °F82 %30.21 in3.7 miWNW (290°)5.8 mphMostly Cloudy
4:50 PM59.0 °F53.6 °F82 %30.21 in3.7 miWNW (300°)5.8 mphMostly Cloudy
5:20 PM59.0 °F53.6 °F82 %30.21 in3.7 miWNW (300°)4.6 mphMostly Cloudy
5:50 PM59.0 °F53.6 °F82 %30.21 in3.1 miWNW (300°)4.6 mphMostly Cloudy
6:20 PM57.2 °F53.6 °F88 %30.21 in3.1 miWNW (290°)3.5 mphMostly Cloudy
6:50 PM57.2 °F53.6 °F88 %30.21 in3.1 miNW (310°)3.5 mphMostly Cloudy
7:20 PM57.2 °F53.6 °F88 %30.24 in3.1 miWNW (290°)3.5 mphMostly Cloudy
7:50 PM55.4 °F53.6 °F94 %30.24 in3.1 miNW (310°)3.5 mphOvercast
8:20 PM55.4 °F53.6 °F94 %30.24 in3.1 miWest (280°)2.3 mphOvercast
8:50 PM55.4 °F53.6 °F94 %30.24 in3.1 miVariable2.3 mphMostly Cloudy
9:20 PM55.4 °F53.6 °F94 %30.24 in3.1 miWNW (290°)3.5 mphOvercast
9:50 PM55.4 °F53.6 °F94 %30.24 in3.1 miWNW (290°)3.5 mphOvercast
10:20 PM55.4 °F53.6 °F94 %30.24 in5.0 miWNW (300°)2.3 mphOvercast
10:50 PM55.4 °F53.6 °F94 %30.24 in5.6 miWest (280°)4.6 mphOvercast
11:20 PM55.4 °F53.6 °F94 %30.24 in5.0 miNNW (330°)2.3 mphOvercast
11:50 PM55.4 °F53.6 °F94 %30.24 in4.3 miNW (320°)3.5 mphScattered Clouds
Hourly data recorded from LSZB, located miles away from Bern, Switzerland







STORIES FROM OUR PARTNERS